Location: Castifao
(42.5040°N, 9.1124°E)
Time: 04:55:38
(UTC+00:00)

Cosmos 2218 Rocket - Pass Details

Date: 23 January 2020
Orbit: 956 x 1006 km, 82.9° (Epoch: 16 February)

Event Time Altitude Azimuth Distance (km) Brightness Sun altitude
Rises 17:27:30 0° 172° (S) 3,685 7.1 -11.6°
Reaches altitude 10° 17:30:02 10° 168° (SSE) 2,747 6.4 -12.1°
Maximum altitude 17:36:11 56° 92° (E) 1,173 4.1 -13.2°
Drops below altitude 10° 17:42:25 10° 16° (NNE) 2,788 6.1 -14.3°
Sets 17:45:00 0° 12° (NNE) 3,744 6.8 -14.7°
